TimeMDT,TemperatureF,Dew PointF,Humidity,Sea Level PressureIn,VisibilityMPH,Wind Direction,Wind SpeedMPH,Gust SpeedMPH,PrecipitationIn,Events,Conditions,WindDirDegrees,DateUTC
12:53 AM,39.0,23.0,53,30.27,10.0,ESE,12.7,-,N/A,,Overcast,120,2012-10-05 06:53:00
1:53 AM,37.0,23.0,57,30.27,10.0,ESE,11.5,-,N/A,,Overcast,110,2012-10-05 07:53:00
2:53 AM,36.0,23.0,59,30.25,10.0,East,11.5,18.4,N/A,,Overcast,100,2012-10-05 08:53:00
3:53 AM,36.0,23.0,59,30.27,10.0,East,11.5,-,N/A,,Overcast,100,2012-10-05 09:53:00
4:34 AM,35.6,24.8,65,30.25,7.0,East,15.0,-,0.00,Snow,Light Snow,90,2012-10-05 10:34:00
4:51 AM,33.8,26.6,75,30.25,6.0,East,13.8,-,0.00,Snow,Light Snow,90,2012-10-05 10:51:00
4:53 AM,33.1,27.0,78,30.27,6.0,East,13.8,-,0.00,Snow,Light Snow,90,2012-10-05 10:53:00
5:53 AM,30.9,30.0,96,30.28,-9999.0,East,12.7,-,0.00,Snow,Light Snow,80,2012-10-05 11:53:00
6:21 AM,30.2,30.2,100,30.25,4.0,ENE,13.8,-,0.00,Snow,Light Snow,70,2012-10-05 12:21:00
6:31 AM,30.2,28.4,93,30.26,1.8,ENE,12.7,-,0.00,Snow,Light Snow,70,2012-10-05 12:31:00
6:53 AM,30.9,28.9,92,30.32,1.5,ENE,15.0,-,0.01,Snow,Light Snow,70,2012-10-05 12:53:00
7:24 AM,30.2,30.2,100,30.28,0.8,ENE,9.2,-,0.02,Snow,Light Snow,60,2012-10-05 13:24:00
7:53 AM,30.9,30.0,96,30.35,0.5,ENE,10.4,-,0.04,Fog-Snow,Snow,70,2012-10-05 13:53:00
8:32 AM,30.2,30.2,100,30.30,1.2,East,9.2,-,0.03,Snow,Light Snow,90,2012-10-05 14:32:00
8:40 AM,30.2,30.2,100,30.30,1.2,East,10.4,-,0.03,Snow,Light Snow,100,2012-10-05 14:40:00
8:53 AM,30.9,30.0,96,30.36,1.5,East,10.4,-,0.03,Snow,Light Snow,100,2012-10-05 14:53:00
9:20 AM,32.0,30.2,93,30.31,3.0,ESE,9.2,-,0.01,Snow,Light Snow,110,2012-10-05 15:20:00
9:53 AM,32.0,30.0,92,30.37,10.0,East,9.2,-,0.01,,Overcast,100,2012-10-05 15:53:00
10:53 AM,33.1,30.9,92,30.37,10.0,ESE,8.1,-,N/A,,Overcast,110,2012-10-05 16:53:00
11:53 AM,33.1,30.0,89,30.38,10.0,ESE,8.1,-,N/A,,Overcast,120,2012-10-05 17:53:00
12:53 PM,33.1,30.9,92,30.38,10.0,East,5.8,-,N/A,,Overcast,90,2012-10-05 18:53:00
1:22 PM,33.8,30.2,87,30.31,10.0,ENE,8.1,-,N/A,,Overcast,70,2012-10-05 19:22:00
1:31 PM,33.8,32.0,93,30.31,10.0,East,6.9,-,N/A,,Overcast,80,2012-10-05 19:31:00
1:53 PM,34.0,32.0,92,30.36,8.0,ENE,8.1,-,N/A,,Overcast,70,2012-10-05 19:53:00
2:10 PM,33.8,32.0,93,30.30,5.0,East,8.1,-,N/A,,Overcast,80,2012-10-05 20:10:00
2:46 PM,33.8,32.0,93,30.30,8.0,East,6.9,-,N/A,,Overcast,80,2012-10-05 20:46:00
2:53 PM,34.0,32.0,92,30.36,10.0,East,8.1,-,N/A,,Overcast,90,2012-10-05 20:53:00
3:07 PM,33.8,32.0,93,30.29,10.0,East,8.1,-,N/A,,Overcast,80,2012-10-05 21:07:00
3:26 PM,35.6,32.0,87,30.29,10.0,East,8.1,-,N/A,,Overcast,80,2012-10-05 21:26:00
3:33 PM,35.6,32.0,87,30.30,10.0,East,8.1,-,N/A,,Overcast,80,2012-10-05 21:33:00
3:49 PM,35.6,32.0,87,30.29,10.0,East,8.1,-,N/A,,Overcast,90,2012-10-05 21:49:00
3:53 PM,35.1,32.0,89,30.35,10.0,East,6.9,-,N/A,,Overcast,100,2012-10-05 21:53:00
4:32 PM,35.6,30.2,81,30.30,10.0,ENE,8.1,-,N/A,,Overcast,70,2012-10-05 22:32:00
4:53 PM,35.1,30.9,85,30.37,10.0,East,6.9,-,N/A,,Overcast,90,2012-10-05 22:53:00
5:44 PM,33.8,32.0,93,30.31,10.0,East,10.4,-,N/A,,Overcast,80,2012-10-05 23:44:00
5:53 PM,34.0,30.9,89,30.38,10.0,ENE,9.2,-,N/A,,Overcast,70,2012-10-05 23:53:00
6:53 PM,34.0,30.9,89,30.39,10.0,East,6.9,-,N/A,,Overcast,100,2012-10-06 00:53:00
7:12 PM,33.8,30.2,87,30.31,10.0,East,8.1,-,N/A,,Overcast,100,2012-10-06 01:12:00
7:53 PM,33.1,30.9,92,30.39,10.0,ESE,4.6,-,N/A,,Overcast,110,2012-10-06 01:53:00
8:53 PM,30.0,28.9,96,30.39,10.0,East,5.8,-,N/A,,Scattered Clouds,80,2012-10-06 02:53:00
9:00 PM,30.2,30.2,100,30.31,10.0,East,4.6,-,N/A,,Mostly Cloudy,100,2012-10-06 03:00:00
9:53 PM,32.0,30.9,96,30.38,10.0,East,4.6,-,N/A,,Overcast,90,2012-10-06 03:53:00
10:53 PM,33.1,30.9,92,30.38,10.0,East,5.8,-,N/A,,Overcast,80,2012-10-06 04:53:00
11:31 PM,32.0,30.2,93,30.30,10.0,ENE,8.1,-,N/A,,Overcast,70,2012-10-06 05:31:00
11:50 PM,32.0,30.2,93,30.29,8.0,ENE,8.1,-,0.00,,Overcast,70,2012-10-06 05:50:00
11:53 PM,32.0,30.0,92,30.37,8.0,ENE,8.1,-,0.00,Snow,Light Snow,70,2012-10-06 05:53:00